Indianapolis, IN

10:09 PM EDT on June 25, 2017 (GMT -0400)
Indianapolis International

Weather History for KIND - February, 2013

Change the Weather History Date:

Wednesday, February 27, 2013

  Actual Average Record
Temperature  
Mean Temperature 36 °F 36 °F  
Max Temperature 41 °F 45 °F 73 °F (1996)
Min Temperature 31 °F 27 °F -7 °F (1963)
Degree Days  
Heating Degree Days 29 29  
Month to date heating degree days 916 893  
Since 1 July heating degree days 3980 4114  
Cooling Degree Days 0 0  
Month to date cooling degree days 0 0  
Year to date cooling degree days 0 0  
Moisture  
Dew Point 31 °F    
Average Humidity 91    
Maximum Humidity 96    
Minimum Humidity 85    
Precipitation  
Precipitation 0.05 in 0.09 in 1.11 in (2011)
Month to date precipitation 2.26 2.23  
Year to date precipitation 7.77 4.89  
Snow  
Snow 0.40 in 0.10 in 6.80 in (1984)
Month to date snowfall 2.4 6.3  
Since 1 July snowfall 19.8 22.9  
Snow Depth 0.00 in    
Sea Level Pressure  
Sea Level Pressure 29.62 in    
Wind  
Wind Speed 17 mph (WSW)    
Max Wind Speed 26 mph    
Max Gust Speed 33 mph    
Visibility 6 miles    
Events Snow    
T = Trace of Precipitation, MM = Missing Value Source: NWS Daily Summary

Daily Weather History Graph

Daily Weather History Graph

Search for Another Location

Airport or City:

Trip Planner

Search our weather history database for the weather conditions in past years. The results will help you decide how hot, cold, wet, or windy it might be!

Date:

Astronomy

Feb. 27, 2013 Rise Set
Actual Time 7:20 AM EST 6:35 PM EST
Civil Twilight 6:53 AM EST 7:02 PM EST
Nautical Twilight 6:22 AM EST 7:33 PM EST
Astronomical Twilight 5:51 AM EST 8:05 PM EST
Moon 8:55 PM EST (2/27) 7:56 AM EST (2/27)
Length of Visible Light 12h 08m
Length of Day
11h 14m
Waning Gibbous, 96% of the Moon is Illuminated
Feb 27
Waning Gibbous
Mar 4
Last Quarter
Mar 11
New
Mar 19
First Quarter
Mar 27
Full

Hourly Weather History & Observations

Time (EST) Temp. Windchill Dew Point Humidity Pressure Visibility Wind Dir Wind Speed Gust Speed Precip Events Conditions
12:54 AM 39.9 °F 31.4 °F 37.9 °F 93% 29.49 in 10.0 mi SW 16.1 mph - N/A   Overcast
1:54 AM 39.0 °F 31.0 °F 37.0 °F 93% 29.51 in 10.0 mi SW 13.8 mph - N/A   Overcast
2:54 AM 39.0 °F 30.3 °F 37.0 °F 93% 29.51 in 10.0 mi SW 16.1 mph - N/A   Overcast
3:54 AM 39.0 °F 31.4 °F 37.0 °F 93% 29.51 in 9.0 mi SW 12.7 mph - N/A   Overcast
4:20 AM 37.4 °F 26.6 °F 35.6 °F 93% 29.51 in 10.0 mi WSW 21.9 mph 29.9 mph 0.00 in   Overcast
4:38 AM 37.4 °F 27.2 °F 35.6 °F 93% 29.51 in 10.0 mi WSW 19.6 mph 31.1 mph 0.00 in   Overcast
4:54 AM 36.0 °F 24.4 °F 34.0 °F 93% 29.55 in 6.0 mi WSW 23.0 mph 33.4 mph 0.00 in   Overcast
5:54 AM 34.0 °F 23.0 °F 32.0 °F 92% 29.57 in 7.0 mi SW 18.4 mph 27.6 mph 0.00 in   Overcast
6:54 AM 34.0 °F 23.0 °F 30.9 °F 89% 29.59 in 10.0 mi WSW 18.4 mph - N/A   Overcast
7:08 AM 33.8 °F 25.3 °F 30.2 °F 87% 29.57 in 10.0 mi SW 11.5 mph - N/A   Overcast
7:46 AM 33.8 °F 23.2 °F 30.2 °F 87% 29.59 in 4.0 mi SW 17.3 mph - 0.00 in   Light Drizzle
7:54 AM 33.1 °F 22.2 °F 30.9 °F 92% 29.61 in 5.0 mi WSW 17.3 mph - 0.00 in   Light Drizzle
8:54 AM 33.1 °F 23.0 °F 30.9 °F 92% 29.63 in 7.0 mi SW 15.0 mph - 0.00 in   Overcast
9:20 AM 33.8 °F 22.8 °F 30.2 °F 87% 29.62 in 5.0 mi WSW 18.4 mph - 0.00 in   Light Drizzle
9:41 AM 33.8 °F 23.9 °F 30.2 °F 87% 29.62 in 6.0 mi SW 15.0 mph - 0.00 in   Light Drizzle
9:54 AM 33.1 °F 21.9 °F 30.9 °F 92% 29.64 in 6.0 mi WSW 18.4 mph - 0.00 in Snow Light Snow
10:11 AM 33.8 °F 23.2 °F 30.2 °F 87% 29.63 in 3.0 mi SW 17.3 mph 23.0 mph 0.00 in Snow Light Snow
10:20 AM 33.8 °F 23.5 °F 30.2 °F 87% 29.63 in 2.0 mi SW 16.1 mph - 0.00 in Snow Light Snow
10:36 AM 33.8 °F 23.5 °F 32.0 °F 93% 29.63 in 2.0 mi WSW 16.1 mph - 0.01 in Snow Light Snow
10:50 AM 33.8 °F 23.5 °F 32.0 °F 93% 29.63 in 2.0 mi SW 16.1 mph 24.2 mph 0.01 in Snow Light Snow
10:54 AM 34.0 °F 23.8 °F 32.0 °F 92% 29.64 in 7.0 mi SW 16.1 mph 23.0 mph 0.01 in   Overcast
11:36 AM 33.8 °F 22.5 °F 30.2 °F 87% 29.63 in 2.5 mi SW 19.6 mph 26.5 mph 0.00 in Snow Light Snow
11:49 AM 33.8 °F 22.8 °F 30.2 °F 87% 29.62 in 3.0 mi SW 18.4 mph 27.6 mph 0.00 in Snow Light Snow
11:54 AM 34.0 °F 22.4 °F 30.9 °F 89% 29.64 in 3.0 mi SW 20.7 mph 28.8 mph 0.00 in Snow Light Snow
12:45 PM 35.6 °F 23.7 °F 30.2 °F 81% 29.62 in 10.0 mi SW 24.2 mph 31.1 mph 0.00 in   Overcast
12:54 PM 35.1 °F 23.8 °F 30.0 °F 82% 29.63 in 10.0 mi SW 20.7 mph 29.9 mph 0.00 in   Overcast
1:54 PM 34.0 °F 23.0 °F 28.9 °F 82% 29.64 in 5.0 mi SW 18.4 mph 26.5 mph 0.00 in Snow Light Snow
2:23 PM 33.8 °F 23.2 °F 30.2 °F 87% 29.62 in 2.5 mi WSW 17.3 mph 27.6 mph 0.00 in Snow Light Snow
2:40 PM 33.8 °F 23.2 °F 30.2 °F 87% 29.62 in 3.0 mi SW 17.3 mph - 0.00 in Snow Light Snow
2:54 PM 33.1 °F 22.2 °F 30.0 °F 89% 29.65 in 3.0 mi SW 17.3 mph - 0.00 in Snow Light Snow
3:10 PM 33.8 °F 23.5 °F 30.2 °F 87% 29.63 in 2.0 mi WSW 16.1 mph - 0.01 in Snow Light Snow
3:31 PM 33.8 °F 23.9 °F 30.2 °F 87% 29.64 in 3.0 mi WSW 15.0 mph - 0.01 in Snow Light Snow
3:54 PM 33.1 °F 22.2 °F 30.0 °F 89% 29.66 in 3.0 mi WSW 17.3 mph - 0.01 in Snow Light Snow
4:19 PM 33.8 °F 25.3 °F 30.2 °F 87% 29.64 in 2.0 mi WSW 11.5 mph - 0.00 in Snow Light Snow
4:31 PM 33.8 °F 24.3 °F 30.2 °F 87% 29.65 in 1.5 mi WSW 13.8 mph - 0.00 in Snow Light Snow
4:54 PM 33.1 °F 23.9 °F 30.9 °F 92% 29.67 in 1.8 mi WSW 12.7 mph - 0.00 in Snow Light Snow
5:54 PM 32.0 °F 22.1 °F 30.9 °F 96% 29.68 in 1.0 mi WSW 13.8 mph - 0.02 in Snow Light Snow
6:54 PM 32.0 °F 21.2 °F 30.0 °F 92% 29.70 in 1.0 mi West 16.1 mph - 0.01 in Snow Light Snow
7:03 PM 32.0 °F 22.1 °F 30.2 °F 93% 29.68 in 4.0 mi WSW 13.8 mph - 0.00 in Snow Light Snow
7:54 PM 32.0 °F 21.2 °F 28.9 °F 88% 29.71 in 9.0 mi WSW 16.1 mph - 0.00 in Snow Light Snow
8:54 PM 32.0 °F 22.1 °F 28.4 °F 87% 29.69 in 9.0 mi WSW 13.8 mph - N/A Snow Light Snow
9:33 PM 32.0 °F 21.6 °F 28.4 °F 87% 29.69 in 9.0 mi West 15.0 mph - 0.00 in Snow Light Snow
9:54 PM 32.0 °F 22.1 °F 28.0 °F 85% 29.72 in 9.0 mi West 13.8 mph - 0.00 in Snow Light Snow
10:14 PM 30.2 °F 18.5 °F 28.4 °F 93% 29.69 in 9.0 mi WSW 17.3 mph - 0.00 in Snow Light Snow
10:54 PM 30.9 °F 19.4 °F 28.0 °F 89% 29.71 in 9.0 mi WSW 17.3 mph - 0.00 in Snow Light Snow
11:11 PM 30.2 °F 18.5 °F 28.4 °F 93% 29.69 in 9.0 mi WSW 17.3 mph - 0.00 in Snow Light Snow
11:54 PM 30.9 °F 19.1 °F 28.0 °F 89% 29.70 in 9.0 mi West 18.4 mph - 0.00 in Snow Light Snow